Location: Ariel
(45.9570°N, 122.5700°W)
Time: 09:49:41
(UTC-07:00)

S-56A Canister/Altair - All Passes

Search period start: 21 July 2019 00:00
Search period end: 31 July 2019 00:00
Orbit: 632 x 2500 km, 38.9° (Epoch: 20 July)

Date Brightness Start Highest point End Pass type
(mag) Time Alt. Az. Time Alt. Az. Time Alt. Az.
21 Jul - 06:35:52 10° SSW 06:45:30 34° SE 06:57:36 10° E daylight
21 Jul - 08:37:52 10° WSW 08:50:07 59° SSE 09:04:50 10° E daylight
21 Jul - 10:42:20 10° W 10:56:14 65° S 11:10:47 10° ESE daylight
21 Jul - 12:48:08 10° W 13:02:05 48° SSW 13:14:50 10° SE daylight
21 Jul - 14:56:15 10° W 15:06:07 22° SW 15:14:55 10° S daylight
22 Jul - 06:03:41 10° SSW 06:12:29 30° SE 06:23:39 10° E daylight
22 Jul - 08:05:07 10° SW 08:16:43 56° SSE 08:31:12 10° E daylight
22 Jul - 10:09:12 10° W 10:22:39 66° S 10:37:27 10° ESE daylight
22 Jul - 12:14:41 10° W 12:28:39 51° SSW 12:41:58 10° SE daylight
22 Jul - 14:22:09 10° W 14:33:03 25° SW 14:42:53 10° S daylight
23 Jul - 05:31:40 10° S 05:39:34 26° SE 05:49:35 10° E daylight
23 Jul - 07:32:27 10° SW 07:43:23 53° SSE 07:57:31 10° E daylight
23 Jul - 09:36:10 10° WSW 09:49:06 66° S 10:04:02 10° ESE daylight
23 Jul - 11:41:20 10° W 11:55:10 54° SSW 12:09:00 10° SE daylight
23 Jul - 13:48:14 10° W 13:59:55 29° SW 14:10:38 10° S daylight
24 Jul - 04:59:50 10° S 05:06:45 22° SE 05:15:23 10° E visible
24 Jul - 06:59:53 10° SW 07:10:09 49° SSE 07:23:47 10° E daylight
24 Jul - 09:03:13 10° WSW 09:15:35 65° S 09:30:31 10° E daylight
24 Jul - 11:08:06 10° W 11:21:40 56° SSW 11:35:53 10° SE daylight
24 Jul - 13:14:31 10° W 13:26:42 32° SW 13:38:12 10° SSE daylight
25 Jul - 04:28:15 10° SSE 04:34:01 18° SE 04:41:00 10° E visible
25 Jul - 06:27:26 10° SW 06:37:00 45° SSE 06:49:59 10° E daylight
25 Jul - 08:30:23 10° WSW 08:42:07 64° S 08:56:56 10° E daylight
25 Jul - 10:34:56 10° W 10:48:09 58° SSW 11:02:40 10° ESE daylight
25 Jul - 12:40:55 10° W 12:53:25 35° SW 13:05:36 10° SSE daylight
25 Jul - 14:53:12 10° WSW 14:56:51 11° SW 15:00:26 10° SW daylight
26 Jul - 03:57:07 10° SSE 04:01:22 14° SE 04:06:15 10° E visible
26 Jul - 05:55:05 10° SW 06:03:57 41° SSE 06:16:09 10° E daylight
26 Jul - 07:57:37 10° WSW 08:08:43 63° S 08:23:17 10° E daylight
26 Jul - 10:01:53 10° W 10:14:38 60° SSW 10:29:21 10° ESE daylight
26 Jul - 12:07:27 10° W 12:20:05 38° SW 12:32:52 10° SSE daylight
26 Jul - 14:17:27 10° W 14:23:52 14° SW 14:30:05 10° SSW daylight
27 Jul - 03:27:38 10° SE 03:28:46 10° ESE 03:29:56 10° ESE visible
27 Jul - 05:22:50 10° SSW 05:31:00 37° SE 05:42:16 10° E daylight
27 Jul - 07:24:57 10° WSW 07:35:23 61° SSE 07:49:35 10° E daylight
27 Jul - 09:28:54 10° W 09:41:08 61° S 09:55:55 10° ESE daylight
27 Jul - 11:34:07 10° W 11:46:43 41° SSW 11:59:59 10° SSE daylight
27 Jul - 13:42:47 10° W 13:50:49 17° SW 13:58:42 10° SSW daylight
28 Jul - 04:50:42 10° SSW 04:58:08 32° SE 05:08:22 10° E visible
28 Jul - 06:52:22 10° WSW 07:02:08 58° SSE 07:15:50 10° E daylight
28 Jul - 08:56:01 10° W 09:07:41 62° S 09:22:25 10° ESE daylight
28 Jul - 11:00:54 10° W 11:13:19 44° SSW 11:26:58 10° SE daylight
28 Jul - 13:08:35 10° W 13:17:42 20° SW 13:26:49 10° S daylight
29 Jul - 04:18:41 10° SSW 04:25:22 28° SE 04:34:26 10° E visible
29 Jul - 06:19:51 10° WSW 06:28:58 55° SSE 06:42:03 10° E daylight
29 Jul - 08:23:12 10° W 08:34:16 63° S 08:48:50 10° ESE daylight
29 Jul - 10:27:47 10° W 10:39:55 46° SSW 10:53:50 10° SE daylight
29 Jul - 12:34:42 10° W 12:44:33 22° SW 12:54:38 10° S daylight
30 Jul - 03:46:49 10° S 03:52:42 23° SE 04:00:26 10° E visible
30 Jul - 05:47:25 10° SW 05:55:55 52° SSE 06:08:16 10° E daylight
30 Jul - 07:50:30 10° W 08:00:56 63° S 08:15:10 10° ESE daylight
30 Jul - 09:54:46 10° W 10:06:31 49° SSW 10:20:36 10° SE daylight
30 Jul - 12:01:03 10° W 12:11:20 25° SW 12:22:13 10° S daylight
